GW5801 Weather Reports


time (UTC)temp
C
wind
direction
speed
KPH
gust
KPH
rain 1hr
cm
rain 24hr
cm
rain mn
cm
humidity
%
barometer
mb
20260510095101 23 201 1.6 1.6 0.00 0.03 0.03 96 1011.4
20260510094601 23 234 0.0 0.0 0.00 0.03 0.03 96 1011.4
20260510094056 23 247 0.0 3.2 0.00 0.03 0.03 96 1011.4
20260510093553 23 331 1.6 4.8 0.00 0.03 0.03 97 1011.3
20260510093050 23 196 1.6 3.2 0.00 0.03 0.03 97 1011.3
20260510092547 23 204 0.0 1.6 0.00 0.03 0.03 97 1011.5
20260510092046 23 234 0.0 1.6 0.00 0.03 0.03 97 1011.6
20260510091543 23 257 0.0 0.0 0.18 0.03 0.03 97 1011.6
20260510091039 23 241 0.0 1.6 0.18 0.03 0.03 97 1011.4
20260510090536 23 218 0.0 0.0 0.00 0.00 0.00 97 1011.4
20260510090032 23 221 0.0 0.0 0.00 0.00 0.00 97 1011.4
20260510085532 23 218 0.0 0.0 0.00 0.00 0.00 97 1011.3
20260510085029 23 203 0.0 0.0 0.00 0.00 0.00 96 1011.4
20260510084526 23 203 0.0 1.6 0.00 0.00 0.00 97 1011.5
20260510084022 23 273 0.0 0.0 0.00 0.00 0.00 96 1011.4
20260510083519 23 244 0.0 0.0 0.00 0.00 0.00 96 1011.5
20260510083015 23 243 0.0 0.0 0.00 0.00 0.00 96 1011.4
20260510082512 23 243 0.0 1.6 0.00 0.00 0.00 96 1011.4
20260510082012 23 225 0.0 1.6 0.00 0.00 0.00 96 1011.2
20260510081508 23 228 0.0 0.0 0.00 0.00 0.00 96 1011.2
20260510081004 23 228 0.0 0.0 0.00 0.00 0.00 96 1011.3
20260510080502 23 228 0.0 0.0 0.00 0.00 0.00 96 1011.3
20260510080000 23 228 0.0 0.0 0.00 0.00 0.00 96 1011.3
20260510075457 23 228 0.0 0.0 0.00 0.00 0.00 96 1011.2
20260510074954 23 227 0.0 1.6 0.00 0.00 0.00 95 1011.2
20260510074451 23 226 0.0 1.6 0.00 0.00 0.00 95 1011.2
20260510073947 23 233 0.0 0.0 0.00 0.00 0.00 95 1011.1
20260510073443 23 182 0.0 1.6 0.00 0.00 0.00 95 1011.2
20260510072939 23 207 1.6 3.2 0.00 0.00 0.00 95 1011.2
20260510072437 23 224 0.0 1.6 0.00 0.00 0.00 95 1011.1
20260510071932 23 205 0.0 0.0 0.00 0.00 0.00 95 1011.1
20260510071429 23 205 1.6 1.6 0.00 0.00 0.00 95 1011.1
20260510070927 23 213 0.0 3.2 0.00 0.00 0.00 95 1011.1
20260510070424 23 222 0.0 1.6 0.00 0.00 0.00 94 1011.0
20260510065919 23 204 0.0 1.6 0.00 0.00 0.00 94 1011.2
20260510065416 23 222 0.0 1.6 0.00 0.00 0.00 94 1011.3
20260510064912 23 187 0.0 4.8 0.00 0.00 0.00 94 1011.2
20260510064410 23 173 0.0 3.2 0.00 0.00 0.00 95 1011.1
20260510063907 23 213 0.0 0.0 0.00 0.00 0.00 95 1011.1
20260510063403 23 219 0.0 4.8 0.00 0.00 0.00 95 1011.3
20260510062901 23 188 1.6 6.4 0.00 0.00 0.00 95 1011.4
20260510062355 23 208 0.0 3.2 0.00 0.00 0.00 95 1011.4
20260510061851 23 205 0.0 3.2 0.00 0.00 0.00 95 1011.5
20260510061348 23 209 0.0 1.6 0.00 0.00 0.00 95 1011.4
20260510060844 23 4 0.0 0.0 0.00 0.00 0.00 95 1011.5
20260510060341 23 44 0.0 0.0 0.00 0.00 0.00 95 1011.8
20260510055838 23 44 0.0 0.0 0.00 0.00 0.00 95 1011.6
20260510055336 23 44 0.0 0.0 0.00 0.00 0.00 95 1011.6
20260510054831 23 255 0.0 0.0 0.00 0.00 0.00 95 1011.7
20260510054327 23 201 1.6 3.2 0.00 0.00 0.00 95 1011.9
20260510053822 23 116 0.0 4.8 0.00 0.00 0.00 95 1011.7
20260510053317 23 102 1.6 4.8 0.00 0.00 0.00 95 1011.7
20260510052814 23 164 1.6 1.6 0.00 0.00 0.00 95 1011.7
20260510052310 23 307 0.0 1.6 0.00 0.00 0.00 95 1011.6
20260510051805 23 327 0.0 1.6 0.00 0.00 0.00 95 1011.8
20260510051302 23 193 1.6 1.6 0.00 0.00 0.00 95 1011.8
20260510050759 23 206 1.6 3.2 0.00 0.00 0.00 95 1011.9
20260510050256 24 142 0.0 1.6 0.00 0.00 0.00 95 1011.9
20260510045753 24 105 3.2 3.2 0.00 0.18 0.18 95 1012.0
20260510045249 24 31 1.6 4.8 0.00 0.18 0.18 95 1012.1
20260510044747 24 67 0.0 3.2 0.00 0.18 0.18 95 1012.1
20260510044244 24 73 1.6 4.8 0.00 0.18 0.18 95 1012.2
20260510043740 24 65 1.6 3.2 0.00 0.18 0.18 95 1012.3
20260510043237 24 72 1.6 6.4 0.00 0.18 0.18 95 1012.3
20260510042734 24 48 0.0 1.6 0.00 0.18 0.18 95 1012.6
20260510042229 24 80 4.8 6.4 0.00 0.18 0.18 95 1012.6
20260510041726 24 54 3.2 6.4 0.00 0.18 0.18 95 1012.3
20260510041224 24 89 0.0 3.2 0.00 0.18 0.18 95 1012.5
20260510040720 24 61 1.6 3.2 0.00 0.18 0.18 95 1012.6
20260510040217 24 87 1.6 3.2 0.00 0.18 0.18 95 1012.5
20260510035713 24 82 0.0 0.0 0.00 0.18 0.18 95 1012.6
20260510035209 24 67 0.0 1.6 0.00 0.18 0.18 95 1012.5
20260510034705 24 67 1.6 1.6 0.00 0.18 0.18 94 1012.7
20260510034202 24 66 0.0 0.0 0.00 0.18 0.18 94 1012.2
20260510033659 25 45 0.0 1.6 0.13 0.18 0.18 93 1012.2
20260510033157 25 339 0.0 1.6 0.89 0.18 0.18 93 1012.1
20260510032652 25 108 0.0 1.6 0.71 0.13 0.13 92 1011.9
20260510032148 25 92 1.6 3.2 0.00 0.00 0.00 91 1012.3
20260510031643 25 166 1.6 3.2 0.00 0.00 0.00 91 1012.5
20260510031140 25 21 0.0 1.6 0.00 0.00 0.00 91 1012.5
20260510030634 25 75 1.6 4.8 0.00 0.00 0.00 91 1012.6
20260510030132 25 73 1.6 6.4 0.00 0.00 0.00 91 1012.4
20260510025629 25 34 1.6 4.8 0.00 0.00 0.00 90 1012.1
20260510025126 25 74 1.6 3.2 0.00 0.00 0.00 90 1011.9
20260510024623 25 358 1.6 3.2 0.00 0.00 0.00 90 1011.9
20260510024119 25 107 3.2 6.4 0.00 0.00 0.00 90 1012.0
20260510023615 25 354 3.2 3.2 0.00 0.00 0.00 90 1011.8
20260510023113 25 111 4.8 6.4 0.00 0.00 0.00 89 1011.6
20260510022613 25 71 3.2 6.4 0.00 0.00 0.00 89 1011.6
20260510022108 26 76 4.8 4.8 0.00 0.00 0.00 89 1011.5
20260510021604 26 51 1.6 3.2 0.00 0.00 0.00 88 1011.4
20260510021102 26 76 4.8 4.8 0.00 0.00 0.00 88 1011.2
20260510020601 26 82 3.2 4.8 0.00 0.00 0.00 87 1011.1
20260510020057 26 86 3.2 6.4 0.00 0.00 0.00 86 1010.9
20260510015554 26 95 1.6 6.4 0.00 0.00 0.00 84 1010.7
20260510015050 26 209 1.6 4.8 0.00 0.00 0.00 81 1010.5
20260510014546 26 75 1.6 3.2 0.00 0.00 0.00 79 1010.4
20260510014043 27 38 0.0 1.6 0.00 0.00 0.00 74 1010.2
20260510013538 27 47 0.0 1.6 0.00 0.00 0.00 74 1010.3
20260510013034 27 68 0.0 3.2 0.00 0.00 0.00 75 1010.1
20260510012527 27 52 1.6 3.2 0.00 0.00 0.00 74 1010.0
20260510012025 27 112 0.0 3.2 0.00 0.00 0.00 72 1009.7
20260510011524 27 206 1.6 4.8 0.00 0.00 0.00 71 1009.5
20260510011020 27 233 1.6 4.8 0.00 0.00 0.00 70 1009.2
20260510010517 27 295 0.0 1.6 0.00 0.00 0.00 69 1009.2
20260510010014 27 275 0.0 1.6 0.00 0.00 0.00 69 1009.1
20260510005509 27 138 1.6 4.8 0.00 0.00 0.00 69 1008.9
20260510005008 28 182 0.0 1.6 0.00 0.00 0.00 75 1009.1
20260510004504 28 109 1.6 1.6 0.00 0.00 0.00 75 1009.1
20260510004002 28 224 0.0 1.6 0.00 0.00 0.00 74 1009.1
20260510003459 28 270 0.0 0.0 0.00 0.00 0.00 72 1009.0
20260510002954 28 277 0.0 0.0 0.00 0.00 0.00 71 1008.8
20260510002450 28 219 0.0 1.6 0.00 0.00 0.00 69 1008.9
20260510001947 28 142 0.0 1.6 0.00 0.00 0.00 69 1009.0
20260510001444 28 289 1.6 3.2 0.00 0.00 0.00 69 1009.0
20260510000942 28 79 1.6 1.6 0.00 0.00 0.00 69 1009.0
20260510000440 28 230 0.0 1.6 0.00 0.00 0.00 68 1009.0
20260509235934 28 129 0.0 0.0 0.00 0.00 0.00 67 1008.7
20260509235431 28 74 0.0 3.2 0.00 0.00 0.00 68 1008.4
20260509234928 28 358 0.0 1.6 0.00 0.00 0.00 70 1008.7
20260509234425 28 122 0.0 0.0 0.00 0.00 0.00 71 1008.6
20260509233923 29 20 0.0 0.0 0.00 0.00 0.00 71 1008.7
20260509233420 29 50 1.6 3.2 0.00 0.00 0.00 70 1008.4
20260509232916 30 280 1.6 3.2 0.00 0.00 0.00 70 1008.4
20260509232414 30 121 1.6 3.2 0.00 0.00 0.00 70 1008.5
20260509231909 30 17 1.6 3.2 0.00 0.00 0.00 69 1008.7
20260509231406 30 72 1.6 4.8 0.00 0.00 0.00 69 1008.6
20260509230904 30 33 0.0 3.2 0.00 0.00 0.00 70 1008.6
20260509230401 30 2 0.0 1.6 0.00 0.00 0.00 70 1008.5
20260509225857 30 201 0.0 1.6 0.00 0.00 0.00 71 1008.5
20260509225353 30 10 0.0 1.6 0.00 0.00 0.00 72 1008.2
20260509224849 30 37 0.0 6.4 0.00 0.00 0.00 72 1008.2
20260509224345 30 64 1.6 3.2 0.00 0.00 0.00 71 1008.4
20260509223843 30 38 0.0 3.2 0.00 0.00 0.00 73 1008.4
20260509223339 30 45 0.0 3.2 0.00 0.00 0.00 72 1008.2
20260509222836 30 72 1.6 4.8 0.00 0.00 0.00 71 1008.3
20260509222331 31 71 1.6 3.2 0.00 0.00 0.00 69 1008.3
20260509221827 31 297 0.0 1.6 0.00 0.00 0.00 69 1008.3
20260509221325 31 147 1.6 3.2 0.00 0.00 0.00 68 1008.2
20260509220825 31 252 0.0 4.8 0.00 0.00 0.00 66 1008.1
20260509220321 31 95 0.0 1.6 0.00 0.00 0.00 64 1008.2
20260509215817 32 254 1.6 1.6 0.00 0.00 0.00 64 1008.1
20260509215314 32 347 1.6 3.2 0.00 0.00 0.00 63 1008.1
20260509214811 32 273 1.6 3.2 0.00 0.00 0.00 62 1008.1
20260509214308 32 197 0.0 3.2 0.00 0.00 0.00 61 1008.2
20260509213804 32 88 3.2 4.8 0.00 0.00 0.00 60 1008.2
20260509213300 33 337 0.0 3.2 0.00 0.00 0.00 59 1008.1
20260509212758 33 300 1.6 1.6 0.00 0.00 0.00 56 1008.0
20260509212255 33 348 0.0 0.0 0.00 0.00 0.00 46 1008.0
20260509211750 33 349 0.0 0.0 0.00 0.00 0.00 48 1008.2
20260509211247 34 303 0.0 1.6 0.00 0.00 0.00 47 1008.2
20260509210744 34 310 0.0 3.2 0.00 0.00 0.00 46 1008.0
20260509210242 34 260 0.0 3.2 0.00 0.00 0.00 46 1008.1
20260509205741 34 288 0.0 3.2 0.00 0.00 0.00 48 1008.4
20260509205236 33 298 0.0 1.6 0.00 0.00 0.00 48 1008.1
20260509204732 33 317 1.6 3.2 0.00 0.00 0.00 49 1008.2
20260509204228 32 282 0.0 0.0 0.00 0.00 0.00 53 1008.5
20260509203724 32 99 1.6 3.2 0.00 0.00 0.00 58 1008.4
20260509203223 32 337 1.6 1.6 0.00 0.00 0.00 52 1008.3
20260509202718 32 183 1.6 3.2 0.00 0.00 0.00 53 1008.3
20260509202214 32 295 0.0 3.2 0.00 0.00 0.00 55 1008.4
20260509201709 32 249 1.6 1.6 0.00 0.00 0.00 54 1008.6
20260509201207 32 118 1.6 3.2 0.00 0.00 0.00 53 1008.7
20260509200703 32 198 1.6 1.6 0.00 0.00 0.00 54 1009.0
20260509200203 32 277 0.0 1.6 0.00 0.00 0.00 56 1009.0
20260509195659 32 74 1.6 3.2 0.00 0.00 0.00 54 1008.9
20260509195155 32 271 0.0 0.0 0.00 0.00 0.00 54 1009.0
20260509194654 32 286 0.0 0.0 0.00 0.00 0.00 55 1009.1
20260509194152 32 74 0.0 3.2 0.00 0.00 0.00 55 1008.9
20260509193648 32 334 0.0 1.6 0.00 0.00 0.00 54 1009.0
20260509193143 32 286 1.6 1.6 0.00 0.00 0.00 56 1008.9
20260509192640 32 333 0.0 3.2 0.00 0.00 0.00 54 1008.9
20260509192135 32 324 0.0 0.0 0.00 0.00 0.00 57 1009.1
20260509191635 32 307 1.6 3.2 0.00 0.00 0.00 60 1009.2
20260509191132 32 293 0.0 0.0 0.00 0.00 0.00 57 1008.9
20260509190628 31 317 0.0 0.0 0.00 0.00 0.00 60 1009.0
20260509190126 31 353 1.6 1.6 0.00 0.00 0.00 59 1009.1
20260509185623 31 330 0.0 1.6 0.00 0.00 0.00 58 1009.2
20260509185119 31 275 0.0 1.6 0.00 0.00 0.00 57 1009.4
20260509184618 31 330 0.0 1.6 0.00 0.00 0.00 64 1009.2
20260509184114 31 304 0.0 1.6 0.00 0.00 0.00 61 1009.3
20260509183609 31 258 3.2 3.2 0.00 0.00 0.00 61 1009.4
20260509183105 31 284 1.6 3.2 0.00 0.00 0.00 61 1009.6
20260509182602 31 302 1.6 3.2 0.00 0.00 0.00 63 1009.6
20260509182059 31 308 0.0 1.6 0.00 0.00 0.00 67 1010.0
20260509181557 30 224 1.6 3.2 0.00 0.00 0.00 68 1010.0
20260509181054 30 330 0.0 1.6 0.00 0.00 0.00 69 1009.9
20260509180550 30 235 0.0 1.6 0.00 0.00 0.00 69 1010.1
20260509180047 30 233 0.0 3.2 0.00 0.00 0.00 68 1010.2
20260509175542 30 264 0.0 3.2 0.00 0.00 0.00 73 1010.6
20260509175040 29 292 0.0 3.2 0.00 0.00 0.00 73 1010.7
20260509174536 28 304 0.0 1.6 0.00 0.00 0.00 76 1010.6
20260509174031 28 324 0.0 0.0 0.00 0.00 0.00 77 1010.9
20260509173526 28 289 0.0 0.0 0.00 0.00 0.00 78 1011.0
20260509173022 28 240 0.0 1.6 0.00 0.00 0.00 78 1010.8
20260509172520 28 284 0.0 0.0 0.00 0.00 0.00 79 1011.0
20260509172015 28 250 0.0 1.6 0.00 0.00 0.00 78 1010.7
20260509171512 28 234 0.0 4.8 0.00 0.00 0.00 78 1010.7
20260509171009 28 267 1.6 6.4 0.00 0.00 0.00 78 1010.9
20260509170504 28 267 0.0 3.2 0.00 0.00 0.00 78 1010.7
20260509165959 28 257 0.0 0.0 0.00 0.00 0.00 80 1011.1
20260509165458 28 219 0.0 0.0 0.00 0.00 0.00 80 1010.9
20260509164955 28 219 0.0 1.6 0.00 0.00 0.00 79 1010.9
20260509164450 28 249 0.0 1.6 0.00 0.00 0.00 79 1011.1
20260509163946 28 272 1.6 1.6 0.00 0.00 0.00 78 1011.2
20260509163444 28 301 0.0 0.0 0.00 0.00 0.00 79 1010.8
20260509162943 28 332 0.0 1.6 0.00 0.00 0.00 79 1010.8
20260509162442 28 291 0.0 0.0 0.00 0.00 0.00 79 1010.7
20260509161938 28 242 0.0 1.6 0.00 0.00 0.00 80 1010.7
20260509161434 27 200 0.0 1.6 0.00 0.00 0.00 81 1010.7
20260509160930 27 200 0.0 0.0 0.00 0.00 0.00 82 1010.6
20260509160426 27 200 0.0 1.6 0.00 0.00 0.00 82 1010.7
20260509155921 27 200 1.6 1.6 0.00 0.00 0.00 82 1010.8
20260509155418 27 269 0.0 1.6 0.00 0.00 0.00 82 1011.0
20260509154915 27 331 0.0 0.0 0.00 0.00 0.00 83 1011.0
20260509154411 27 332 0.0 0.0 0.00 0.00 0.00 85 1011.1
20260509153908 26 273 0.0 0.0 0.00 0.00 0.00 86 1010.9
20260509153405 26 259 0.0 1.6 0.00 0.00 0.00 87 1010.3
20260509152902 26 52 1.6 3.2 0.00 0.00 0.00 88 1010.3
20260509152358 26 252 4.8 4.8 0.00 0.00 0.00 88 1010.6
20260509151855 26 221 0.0 3.2 0.00 0.00 0.00 89 1010.2
20260509151350 25 216 0.0 1.6 0.00 0.00 0.00 89 1010.6
20260509150849 25 213 1.6 3.2 0.00 0.00 0.00 90 1010.5
20260509150347 25 334 0.0 0.0 0.00 0.00 0.00 90 1010.2
20260509145844 25 183 0.0 0.0 0.00 0.00 0.00 91 1010.2
20260509145338 25 218 0.0 1.6 0.00 0.00 0.00 91 1010.7
20260509144835 25 219 0.0 3.2 0.00 0.00 0.00 91 1010.6
20260509144332 25 198 0.0 1.6 0.00 0.00 0.00 91 1010.7
20260509143829 25 198 0.0 1.6 0.00 0.00 0.00 91 1011.0
20260509143327 25 222 0.0 1.6 0.00 0.00 0.00 92 1010.9
20260509142822 25 209 1.6 3.2 0.00 0.00 0.00 93 1010.8
20260509142319 25 225 0.0 1.6 0.00 0.00 0.00 95 1010.8
20260509141814 25 250 0.0 1.6 0.00 0.00 0.00 96 1010.4
20260509141312 25 121 1.6 4.8 0.00 0.00 0.00 96 1010.6
20260509140808 25 191 0.0 1.6 0.00 0.00 0.00 96 1010.8
20260509140305 25 191 0.0 1.6 0.00 0.00 0.00 97 1010.7
20260509135803 25 191 0.0 1.6 0.00 0.00 0.00 97 1010.7
20260509135300 24 191 0.0 0.0 0.00 0.00 0.00 98 1010.7
20260509134757 24 191 0.0 0.0 0.00 0.00 0.00 98 1010.6
20260509134255 24 191 0.0 0.0 0.00 0.00 0.00 98 1010.5
20260509133752 24 191 0.0 0.0 0.00 0.00 0.00 98 1010.6
20260509133248 24 191 0.0 0.0 0.00 0.00 0.00 98 1010.6
20260509132747 24 191 0.0 0.0 0.00 0.00 0.00 98 1010.9
20260509132245 24 191 0.0 1.6 0.00 0.00 0.00 98 1011.1
20260509131742 24 191 0.0 0.0 0.00 0.00 0.00 98 1011.1
20260509131238 24 191 0.0 0.0 0.00 0.00 0.00 98 1010.9
20260509130734 24 191 0.0 0.0 0.00 0.00 0.00 98 1010.8
20260509130230 24 190 0.0 0.0 0.00 0.00 0.00 98 1010.8
20260509125727 23 200 0.0 0.0 0.00 0.00 0.00 98 1010.5
20260509125224 23 194 1.6 1.6 0.00 0.00 0.00 98 1010.5
20260509124720 23 207 0.0 0.0 0.00 0.00 0.00 98 1010.8
20260509124217 23 207 0.0 0.0 0.00 0.00 0.00 98 1010.7
20260509123715 23 207 0.0 1.6 0.00 0.00 0.00 98 1010.7
20260509123212 23 263 0.0 0.0 0.00 0.00 0.00 98 1010.7
20260509122707 23 263 0.0 0.0 0.00 0.00 0.00 98 1010.8
20260509122205 23 213 0.0 0.0 0.00 0.00 0.00 98 1010.6
20260509121701 23 213 0.0 0.0 0.00 0.00 0.00 98 1010.5
20260509121159 23 213 0.0 0.0 0.00 0.00 0.00 98 1010.4
20260509120657 23 213 0.0 0.0 0.00 0.00 0.00 98 1010.5
20260509120155 23 213 0.0 0.0 0.00 0.00 0.00 98 1010.5
20260509115652 23 213 0.0 0.0 0.00 0.00 0.00 98 1010.6
20260509115149 23 213 0.0 0.0 0.00 0.00 0.00 98 1010.6
20260509114648 23 214 0.0 0.0 0.00 0.00 0.00 98 1010.6
20260509114147 23 213 0.0 0.0 0.00 0.00 0.00 98 1010.8
20260509113644 23 263 0.0 0.0 0.00 0.00 0.00 98 1010.8
20260509113141 23 263 0.0 0.0 0.00 0.00 0.00 98 1010.6
20260509112638 23 263 0.0 0.0 0.00 0.00 0.00 98 1010.6
20260509112135 23 263 0.0 0.0 0.00 0.00 0.00 98 1010.7
20260509111632 23 263 0.0 0.0 0.00 0.00 0.00 98 1010.5
20260509111129 23 263 0.0 0.0 0.00 0.00 0.00 98 1010.5
20260509110626 23 263 0.0 0.0 0.00 0.00 0.00 98 1010.2
20260509110123 23 263 0.0 0.0 0.00 0.00 0.00 98 1010.2
20260509105621 23 263 0.0 0.0 0.00 0.00 0.00 98 1010.1
20260509105119 23 263 0.0 0.0 0.00 0.00 0.00 98 1009.7
20260509104616 23 263 0.0 0.0 0.00 0.00 0.00 98 1010.0
20260509104112 23 263 0.0 0.0 0.00 0.00 0.00 98 1009.9
20260509103610 23 263 0.0 0.0 0.00 0.00 0.00 98 1010.2
20260509103108 23 263 0.0 0.0 0.00 0.00 0.00 98 1010.0
20260509102605 23 263 0.0 0.0 0.00 0.00 0.00 98 1010.2
20260509102102 23 263 0.0 0.0 0.00 0.00 0.00 98 1010.1
20260509101558 23 263 0.0 0.0 0.00 0.00 0.00 98 1009.9
20260509101055 23 263 0.0 0.0 0.00 0.00 0.00 98 1010.2
20260509100552 23 263 0.0 0.0 0.00 0.00 0.00 98 1010.3
20260509100049 23 263 0.0 0.0 0.00 0.00 0.00 98 1010.0
20260509095545 23 213 0.0 0.0 0.00 0.00 0.00 98 1009.9